map of CKY home
CKY - Airport
Location
City:  Conakry, Guinea
Name:Conakry International Airport
Old (Alt.):G'bessia International Airport
ICAO:GUCY
IATA:CKY

Details
Type:Airport (Aerodrome, Airfield)
Use:Public/Civil, International (customs port of entry)
Latitude:934'37"N (9.576889)
Longitude:1336'43"W (-13.611960)
Elevation:72 ft (22 m)
Variation:6.88W (WMM2015 magnetic declination)
0.11 annual change
Runways:1
Longest:10826 × 148 ft (3300 × 45 m), paved

Time
Time Zone:UTC+0
Local Time:

Weather
METAR:GUCY 201400Z 20008KT 5000 HZ NSC 32/19 Q1012 NOSIG
TAF:GUCY 201100Z 2012/2118 30006KT 5000 HZ SCT110
TEMPO 2014/2018 4000 HZ
TEMPO 2103/2108 2000 BR FEW015

Related Locations
Nearby:
Farthest:SCZ: 12345 mi / 19867 km
Santa Cruz/Graciosa Bay/Luova, Santa Cruz Island, SB

Find:

   beyond  
but within

Other Information
Maps:
NOTAMs:
Links:
Sources:

  
  • flag of Guinea
  

Sectional Chart

Flight Planning
at skyvector.com

Satellite Image

Google Maps Satellite view

 

Copyright © 2004-2019 Karl L. Swartz. All rights reserved.
The Great Circle Mapper name and logo are trademarks of the Great Circle Mapper.
All other trademarks mentioned herein belong to their respective owners.
Please see credits for attibutions and further copyright information.

  Follow gcmap on Facebook Follow gcmap on Twitter Follow gcmap on Google+ GCmap on LinkedIn

hCard Microformat

Geo Microformat